Location: Claremont
(35.7250°N, 81.1500°W)
Time: 06:48:36
(UTC-05:00)

Daily predictions for brighter satellites

Satellite Brightness Start Highest point End
(mag) Time Altitude Azimuth Time Altitude Azimuth Time Altitude Azimuth
Cosmos 2181 Rocket 4.3 18:31:43 10° N 18:37:47 48° E 18:43:53 10° SSE
Okean 1 Rocket 3.5 18:35:53 10° SSE 18:40:05 41° E 18:44:18 10° NNE
Genesis I 4.1 18:37:12 10° N 18:40:44 30° NE 18:44:13 10° ESE
Cosmos 1238 Rocket 2.7 18:39:00 10° NNE 18:41:46 35° E 18:44:40 10° SSE
Cosmos 1709 Rocket 4.0 18:35:54 10° S 18:42:06 78° E 18:48:16 10° N
NOSS 8 (H) 4.4 18:40:26 10° SSW 18:43:51 88° WNW 18:47:20 10° NNE
METEOR-M 4.3 18:39:13 10° SSE 18:44:21 51° ENE 18:49:30 10° N
Cosmos 1484 Rocket 4.0 18:43:15 10° S 18:47:04 48° W 18:50:52 10° NNW
ASTRO F (AKARI) 4.3 18:44:25 10° NNE 18:47:52 84° ESE 18:51:07 10° SSW
OTV 4 1.5 18:45:59 10° SW 18:48:41 32° SSE 18:51:22 10° E
Cosmos 1025 Rocket 4.2 18:46:03 10° NNE 18:49:31 22° ENE 18:52:57 10° SE
Cosmos 2322 3.7 18:52:53 10° NNW 18:58:38 78° ENE 19:04:19 10° SSE
DELTA 2 R/B (1) 4.0 18:53:20 10° WNW 18:58:53 64° SSW 19:04:25 10° SE
Hubble Space Telescope 2.4 18:56:58 10° SW 19:00:17 23° S 19:03:33 10° ESE
BREEZE-M DEB (TANK) 2.6 18:57:26 10° SW 19:02:57 88° NW 19:05:20 11° NE
Cosmos 1850 Rocket 4.1 18:59:09 10° SSW 19:04:26 89° ESE 19:09:49 10° NNE
SJ-6B 2.8 19:03:54 10° SSE 19:07:50 61° ENE 19:11:42 10° N
CZ-3C R/B 3.4 19:00:15 10° WSW 19:08:10 19° SSW 19:11:31 10° SSE
Cosmos 2208 Rocket 4.2 19:03:00 10° N 19:08:19 53° ENE 19:13:33 10° SSE
Meteor 1-19 Rocket 4.2 19:03:23 10° N 19:09:08 84° E 19:14:56 10° S
ALOS 2.5 19:07:00 10° SSE 19:11:28 47° ENE 19:15:56 10° N
Cosmos 405 Rocket 4.2 19:09:20 10° NNE 19:12:17 19° ENE 19:13:11 18° E
Cosmos 2297 Rocket 3.5 19:08:50 10° SE 19:12:33 18° E 19:14:23 16° ENE
HJ-1C 3.8 19:09:34 10° SE 19:12:43 39° ENE 19:15:54 10° N
Cosmos 2237 Rocket 3.6 19:09:10 10° NNE 19:12:56 18° NE 19:14:36 16° ENE
H-2A R/B 3.6 19:11:28 10° SE 19:14:38 27° ENE 19:17:51 10° NNE
CZ-2D R/B 4.5 19:14:14 18° E 19:15:24 21° ENE 19:18:19 10° NNE
Cosmos 2333 4.5 19:10:01 10° N 19:15:34 48° ENE 19:21:07 10° SE
Cosmos 2237 4.2 19:11:33 10° NNW 19:17:18 74° ENE 19:22:59 10° SSE
COSMOS 2428 2.8 19:11:49 10° NNW 19:17:26 57° ENE 19:23:01 10° SE
Okean 1-7 Rocket 3.5 19:15:54 10° N 19:20:24 70° E 19:24:50 10° SSE
Meteor 2-4 Rocket 3.5 19:17:39 10° N 19:23:09 78° E 19:28:30 10° SSE
Cosmos 2285 Rocket 4.2 19:18:10 10° N 19:24:24 48° ENE 19:30:32 10° SE
Cosmos 2219 Rocket 2.7 19:20:24 10° N 19:25:33 36° ENE 19:28:57 19° ESE
Cosmos 2360 Rocket 3.1 19:20:13 10° NNW 19:25:42 52° WSW 19:31:10 10° S
Meteor 1-23 Rocket 4.2 19:23:09 10° N 19:28:56 72° E 19:34:37 10° SSE
Okean 2 3.7 19:26:01 10° N 19:30:00 41° E 19:33:57 10° SSE
Cosmos 2219 3.7 19:25:04 10° SSW 19:30:46 63° WNW 19:36:28 10° NNE
OAO 3 Rocket 4.1 19:26:54 10° SW 19:31:23 35° SSE 19:33:19 25° ESE
FREGAT/IRIS 3.7 19:28:39 10° S 19:31:39 47° W 19:34:39 10° NNW
Cosmos 2227 Rocket 2.6 19:27:34 10° S 19:32:44 38° ESE 19:37:56 10° NE
Atlas Centaur 2 3.8 19:26:59 10° SSW 19:32:55 25° SSE 19:35:47 19° SE
Helios 1A 3.8 19:33:28 28° ENE 19:33:35 28° ENE 19:37:09 10° NNE
Abrixas rocket 4.2 19:32:21 10° W 19:35:08 24° NNW 19:37:11 14° NNE
Helios 1B rocket 2.9 19:33:03 10° NNE 19:36:54 36° E 19:40:44 10° SSE
Cosmos 1536 4.1 19:34:26 10° SSW 19:38:13 43° W 19:42:02 10° N
SAR-Lupe-4 4.2 19:44:54 38° NE 19:44:54 38° NE 19:47:39 10° N
Cosmos 1455 Rocket 3.3 19:40:54 10° SSE 19:45:02 42° E 19:49:09 10° NNE
SL-16 R/B 4.0 19:45:31 10° NNE 19:47:23 14° NE 19:47:23 14° NE
Resurs 01 Rocket 1.8 19:53:47 10° S 19:58:10 70° W 20:02:34 10° NNW
ATLAS 2A CENTAUR R/B 3.9 20:05:06 10° SW 20:08:13 21° S 20:10:06 19° SSE
Resurs 1-3 4.0 20:04:15 10° S 20:08:35 63° W 20:12:56 10° NNW
Cosmos 2333 Rocket 2.1 20:05:51 10° NNW 20:11:37 73° ENE 20:12:59 52° SE
Cosmos 1980 3.7 20:07:02 10° NNW 20:12:37 58° ENE 20:12:50 58° ENE
GEOS 3 Rocket 4.1 20:08:20 12° NNE 20:13:13 60° NW 20:18:24 10° SW
GPS 2-04 Rocket1 2.9 20:10:12 10° W 20:14:12 77° W 20:14:12 77° W
OTV 4 3.3 20:21:41 10° W 20:22:38 18° W 20:22:38 18° W
Cosmos 1892 Rocket 4.2 20:20:36 10° NNW 20:24:52 54° W 20:26:07 39° SW
Cosmos 468 Rocket 4.2 20:22:27 10° NNW 20:27:41 70° WSW 20:28:52 52° SSW
USA 229 DEB 4.2 20:24:10 10° NW 20:31:13 61° WSW 20:35:24 26° S
USA 229 4.2 20:24:16 10° NW 20:31:19 61° WSW 20:35:25 27° S
Cosmos 2082 3.9 20:29:15 10° SSW 20:34:56 69° WNW 20:37:59 28° N
Hubble Space Telescope 3.1 20:37:28 10° WSW 20:38:56 19° SW 20:38:56 19° SW
NOSS 3-1 (A) 4.1 20:36:30 10° NNW 20:44:06 60° NE 20:44:06 60° NE
Envisat 4.2 20:47:02 33° NNW 20:47:02 33° NNW 20:49:49 10° NNW
ATLAS 2AS CENTAUR R/B 4.4 20:43:13 10° N 20:48:06 22° NNE 20:48:06 22° NNE
Cosmos 2297 Rocket 2.8 20:50:35 10° SW 20:56:04 52° WNW 20:56:25 51° NW
Cosmos 2237 Rocket 2.8 20:51:48 10° NNW 20:56:29 54° WNW 20:56:29 54° WNW
NOSS 3-1 (C) 4.0 20:54:12 10° NNW 21:02:02 87° WSW 21:02:16 85° S
H-2A R/B 4.0 21:03:01 10° SW 21:42:31 14° E 21:55:59 10° E
H-2A R/B 4.0 21:03:00 10° SW 21:42:31 14° E 21:55:59 10° E
H-2A R/B 4.0 21:03:01 10° SW 21:42:32 14° E 21:55:59 10° E
H-2A R/B 4.0 21:03:01 10° SW 21:42:30 14° E 21:55:59 10° E
H-2A R/B 4.0 21:03:00 10° SW 21:42:32 14° E 21:55:59 10° E
Cosmos 2219 Rocket 4.0 21:04:40 10° NW 21:09:16 27° WSW 21:10:47 23° SW
Cosmos 2227 Rocket 4.1 21:12:08 10° WSW 21:16:50 27° WNW 21:20:36 14° N
Atlas Centaur 2 4.1 21:15:27 10° WSW 21:18:27 24° SW 21:18:27 24° SW
SL-16 R/B 4.3 21:27:41 10° NNW 21:29:17 20° NNW 21:29:17 20° NNW
